Regional Weather Roundup
Issued by NWS Albany, NY

Home | Current Version | Previous Version | Graphics & Text | Print | Product List | Glossary Off
Versions: 1 2 3 4 5 6 7 8 9 10 11 12 13 14 15 16 17 18 19 20 21 22 23 24 25 26 27 28 29 30 31 32 33 34 35 36 37 38 39 40 41 42 43 44 45 46 47 48 49 50

601
ASUS41 KALY 231310
RWRALY

NEW YORK STATE HOURLY WEATHER ROUNDUP
NATIONAL WEATHER SERVICE ALBANY NY
800 AM EST MON JAN 23 2017

NOTE: "FAIR" INDICATES FEW OR NO CLOUDS BELOW 12,000 FEET WITH NO
SIGNIFICANT WEATHER AND/OR NO OBSTRUCTIONS TO VISIBILITY.

NYZ032-033-038>043-046>054-057>066-NYZ062>081-082-084-231400-
EAST


CITY           SKY/WX    TMP DP  RH WIND       PRES   REMARKS
ALBANY         CLOUDY    38  27  64 E10       29.96R WCI  31
GLENS FALLS    CLOUDY    36  28  73 NE9       29.97S WCI  29
POUGHKEEPSIE   CLOUDY    38  29  70 NE12G20   29.89F WCI  30
MONTGOMERY     CLOUDY    39  33  79 NE13      29.86S WCI  31
WHITE PLAINS   CLOUDY    39  30  70 E9G29     29.85R WCI  33
ISLIP          CLOUDY    40  31  70 E24G35    29.85S WCI  29
NEW YORK CITY  CLOUDY    43  33  68 E20G35    29.86R
CENTRAL PARK   CLOUDY    40  34  79 E15G32    29.87R WCI  32
$$

NYZ005>009-017-018-044>046-055-056-231400-
CENTRAL


CITY           SKY/WX    TMP DP  RH WIND       PRES   REMARKS
FULTON         CLOUDY    40  32  73 MISG      29.83S
SYRACUSE       CLOUDY    39  32  76 E13       29.83R WCI  31
ROME           CLOUDY    38  31  76 E9        29.89S WCI  31
ELMIRA         CLOUDY    42  34  73 E12       29.74F
BINGHAMTON     CLOUDY    36  33  89 E12       29.74F WCI  28
MONTICELLO     CLOUDY    34  30  86 E15G23    29.81S WCI  24
$$

NYZ026>034-041>043-087-231400-
NORTH


CITY           SKY/WX    TMP DP  RH WIND       PRES   REMARKS
WATERTOWN      CLOUDY    33  32  96 NE13      29.88R WCI  24
FORT DRUM      NOT AVBL
OGDENSBURG     CLOUDY    31  30  94 E8        29.95R WCI  24
MASSENA        CLOUDY    30  27  88 NE17      29.99R WCI  18
SARANAC LAKE   CLOUDY    31  28  89 E8        29.90R WCI  23
PLATTSBURGH    CLOUDY    32  31  96 CALM      30.02R
$$

NYZ001>004-010>016-019>021-085-231400-
WEST


CITY           SKY/WX    TMP DP  RH WIND       PRES   REMARKS
NIAGARA FALLS  CLOUDY    39  36  89 E16       29.73S FOG     WCI  30
BUFFALO        CLOUDY    38  37  97 NE15      29.73R FOG     WCI  29
DUNKIRK        CLOUDY    38  38 100 NE8       29.67S FOG     WCI  32
JAMESTOWN      CLOUDY    46  39  76 E9        29.63S
WELLSVILLE     CLOUDY    41  39  93 E14G21    29.69S FOG
ROCHESTER      CLOUDY    42  40  92 E7        29.78R
PENN YAN       CLOUDY    42  36  79 VRB6      29.78R
$$

             KEY
       WCI = WIND CHILL INDEX
       VSB = VISIBILITY
       HX  = HEAT INDEX
$$




USA.gov is the U.S. government's official web portal to all federal, state and local government web resources and services.